User: anonymous   Login
Location: Byszew
(52.1813°N, 19.2693°E)
Time: 06:11:30
(UTC+00:00)
Language:

Okean 1-7 - Orbit

View from above orbital plane
View from above orbital plane
View from above satellite
View from above satellite

Ground track
Ground track

The orbit data is extracted from the following two-line orbital elements,

1 23317U 94066A   21134.61913677  .00000236  00000-0  23001-4 0  9993
2 23317  82.5399 215.4426 0019824  10.2811 349.8807 14.87914951438165
Epoch (UTC): 14 May 2021 14:51:33
Eccentricity: 0.0019824
inclination: 82.5399°
perigee height: 590 km
apogee height: 618 km
right ascension of ascending node: 215.4426°
argument of perigee: 10.2811°
revolutions per day: 14.87914951
mean anomaly at epoch: 349.8807°
orbit number at epoch: 43816

The dashed part of the orbit path shows where the satellite is in the earth's shadow,  

DLR